Location: Newark
(0.5300°S, 127.4800°E)
Time: 11:46:03
(UTC+00:00)

N. Korean satellite - Visible Passes

Search period start: 23 July 2019 00:00
Search period end: 02 August 2019 00:00
Orbit: 456 x 508 km, 97.2° (Epoch: 22 July)

Date Brightness Start Highest point End Pass type
(mag) Time Alt. Az. Time Alt. Az. Time Alt. Az.
23 Jul 8.4 20:45:18 10° NE 20:48:41 34° E 20:52:05 10° SSE visible
24 Jul 9.7 20:21:40 10° ENE 20:23:40 14° ESE 20:25:39 10° SE visible
26 Jul 6.9 21:03:01 10° NNE 21:06:42 73° E 21:10:22 10° S visible
27 Jul 8.9 20:38:30 10° NE 20:41:39 26° E 20:44:47 10° SSE visible
28 Jul 9.8 10:00:36 10° SW 10:01:56 12° W 10:03:17 10° WNW visible
28 Jul 9.9 20:15:41 10° E 20:16:37 11° ESE 20:17:32 10° ESE visible
30 Jul 7.4 20:56:02 10° NNE 20:59:38 54° E 21:03:13 10° S visible
31 Jul 9.3 20:31:47 10° NE 20:34:35 21° E 20:37:22 10° SSE visible
